STARLINK-5169 (54060 NORAD) Tracking and Keplerian Element Data

This shows tracking and keplerian element data for the satellite.

Feedback or suggestion? Click here.




ElementValue
Catalog54060
NameSTARLINK-5169
Epoch Orbit551
Epoch Day325.33334491
Epoch Year2022
RAAN350.1178
Inclination53.2134
Eccentricity0.0003179
Argument of Perigee13.9535
Mean Anonmoly345.2156
Mean Motion15.73204327
Decay Rate0.00028881
L11 54060U 22136K 22325.33334491 .00028881 00000+0 20942-3 0 9999
L22 54060 53.2134 350.1178 0003179 13.9535 345.2156 15.73204327 5517



Live tracking and technical data element details for STARLINK-5169 (NORAD 54060). STARLINK-5169 can be tracked NOW for your location showing map with azimuth and elevation plus other details from your city location.







IsCatalogInMostPopularTable: catalog: 54060, numindb: 1
Update: records affected: 1



GetName: 54060 STARLINK-5169

Hit Count: updated at: Mon, 28 Nov 2022 22:05:27 GMT